Simultaneous Nadir Overpasses (SNOs) Predictions

Prediction of SNOs between AQUA and METOP-B Satellite Orbit:

Table of predicted SNOs for the next 14.0 days since TLE Epoch: 5/29/2021
Index Date (AQUA) Time (AQUA) Lat,Lon (AQUA) SZA (AQUA ) Date (METOP-B) Time (METOP-B) Lat,Lon (METOP-B) SZA (METOP-B ) Distance(km) Time Diff (sec)
1 05/31/2021 10:15:18 73.26, 21.53 51.24 05/31/2021 10:14:10 73.20, 19.37 51.26 69.82 68
2 05/31/2021 11:04:54 -73.79,-171.94 128.21 05/31/2021 11:04:40 -73.80,-171.91 128.19 2.10 14
3 05/31/2021 11:54:23 73.89, -4.52 51.89 05/31/2021 11:55:18 73.88, -4.40 51.87 3.65 55
4 06/03/2021 05:49:39 73.55, 87.38 51.18 06/03/2021 05:48:28 73.49, 86.43 51.16 30.51 71
5 06/03/2021 06:39:09 -73.80,-105.54 128.56 06/03/2021 06:39:03 -73.80,-105.52 128.56 0.87 6
6 06/03/2021 07:28:37 73.86, 61.98 51.50 06/03/2021 07:29:41 73.87, 61.98 51.50 1.43 64
7 06/06/2021 01:23:57 73.73, 153.41 51.06 06/06/2021 01:22:46 73.73, 153.39 51.07 0.91 71
8 06/06/2021 02:13:24 -73.78, -39.05 128.89 06/06/2021 02:13:27 -73.79, -39.13 128.87 3.05 3
9 06/06/2021 03:02:53 73.88, 128.36 51.22 06/06/2021 03:04:05 73.86, 128.36 51.18 3.02 72
10 06/08/2021 20:58:13 73.77,-140.23 50.84 06/08/2021 20:57:09 73.76,-140.12 50.85 3.48 64
11 06/08/2021 21:47:40 -73.81, 27.32 129.12 06/08/2021 21:47:50 -73.83, 27.38 129.10 3.20 10
12 06/08/2021 22:37:13 74.13,-165.76 51.22 06/08/2021 22:38:23 74.14,-164.54 51.19 37.03 70
13 06/11/2021 16:32:28 73.76, -73.77 50.63 06/11/2021 16:31:33 73.75, -73.75 50.63 1.36 55
14 06/11/2021 17:21:55 -73.80, 93.78 129.33 06/11/2021 17:22:14 -73.82, 93.75 129.31 2.68 19



Historial Predications of SNOs between AQUA and METOP-B
